[[{"header":{"parameterUnit":"m.s-1","parameterCategory":1,"la1":30.2991,"la2":30.254,"lo1":-89.0895,"lo2":-89.0444,"dy":0.0017,"dx":0.0017,"nx":28,"ny":28,"refTime":"2023-10-09T03:00:00:Z","depth":0,"parameterNumber":2,"parameterNumberName":"U-component_of_WINDS"},"data":[0,0,0,0,0,0,0,0,0,0,0,0,0,0,0,0,0,0,0,0,0,0,0,0,0,0,0,0,0,0,0,0,0,0,0,0,0,0,0,0,0,0,0,0,0,0,0,0,0,0,0,0,0,0,0,0,0,0,-1.7704,-1.7704,0,-1.7709,-1.7709,-1.771,-1.7657,-1.7655,-1.7654,-1.7652,-1.7658,-1.766,-1.7661,0,0,0,0,0,0,0,0,0,0,0,0,0,-1.7648,-1.765,-1.7704,-1.7704,-1.7704,-1.7709,-1.7709,-1.771,-1.7657,-1.7655,-1.7653,-1.7652,-1.7658,-1.7659,-1.7661,0,0,0,0,0,0,0,0,0,0,0,0,0,-1.7665,-1.765,-1.7704,-1.7678,-1.7676,-1.7709,-1.7709,-1.771,-1.7657,-1.7655,-1.7653,-1.7651,-1.7657,-1.7659,-1.7661,-1.7719,0,0,-1.7668,-1.7669,0,0,0,0,0,0,0,0,-1.7664,-1.7667,-1.7682,-1.768,-1.7678,-1.768,-1.7692,-1.7713,-1.7658,-1.7664,-1.7652,-1.765,-1.7667,-1.7669,-1.7674,-1.772,-1.772,-1.7669,-1.767,-1.7671,-1.7672,0,0,0,0,0,0,0,-1.7663,-1.7667,-1.7706,-1.7682,-1.768,-1.7667,-1.7667,-1.7696,-1.7678,-1.7664,-1.766,-1.7661,-1.7666,-1.7672,-1.7674,-1.772,-1.7669,-1.7671,-1.7672,-1.7673,-1.7813,-1.7816,0,0,0,0,0,0,-1.7665,-1.7666,-1.7706,-1.7706,-1.7665,-1.767,-1.767,-1.7682,-1.7678,-1.7675,-1.7663,-1.7659,-1.7669,-1.7672,-1.7674,-1.7742,-1.7671,-1.7673,-1.7674,-1.7811,-1.7814,-1.7816,0,0,0,0,0,0,-1.7664,-1.7669,-1.7706,-1.7685,-1.7689,-1.7673,-1.7687,-1.7683,-1.7689,-1.7677,-1.7674,-1.7673,-1.7668,-1.7671,-1.7709,-1.7741,-1.7674,-1.7676,-1.7808,-1.7812,-1.7815,-1.7878,0,0,0,0,0,0,-1.7663,-1.7669,-1.7691,-1.7686,-1.769,-1.774,-1.7689,-1.7685,-1.7694,-1.7688,-1.7686,-1.7683,-1.7666,-1.7705,-1.7711,-1.7743,-1.7678,-1.7805,-1.781,-1.7814,-1.7873,-1.7883,-1.7892,0,0,0,0,0,-1.7661,-1.7709,-1.7693,-1.7698,-1.7717,-1.7742,-1.7745,-1.7724,-1.7696,-1.7718,-1.771,-1.7683,-1.7737,-1.771,-1.7715,-1.7749,-1.7803,-1.7809,-1.7814,-1.7868,-1.7881,-1.7892,0,0,0,0,0,0,-1.7718,-1.7707,-1.7689,-1.7737,-1.7741,-1.7733,-1.776,-1.7738,-1.775,-1.7744,-1.7718,-1.7718,-1.7761,-1.7758,-1.7728,-1.7805,-1.7765,-1.7772,-1.7805,-1.7817,-1.7826,-1.7826,-1.768,0,0,0,0,0,-1.7736,-1.7757,-1.7747,-1.779,-1.7793,-1.7776,-1.7786,-1.777,-1.7774,-1.7775,-1.777,-1.7774,-1.7792,-1.7804,-1.782,-1.7872,-1.7871,-1.7898,-1.7908,-1.7915,-1.7922,-1.7949,-1.7961,-1.7834,-1.7834,-1.7834,0,0,-1.7774,-1.777,-1.7785,-1.7801,-1.7802,-1.7825,-1.7778,-1.7804,-1.7821,-1.7779,-1.7814,-1.7811,-1.7814,-1.7859,-1.7879,-1.7859,-1.7957,-1.7922,-1.7929,-1.793,-1.7956,-1.7968,-1.7979,-1.7838,-1.7837,-1.7836,0,0,-1.7854,-1.7853,-1.7889,-1.7891,-1.7894,-1.7882,-1.7891,-1.7887,-1.7883,-1.7918,-1.7887,-1.7907,-1.7938,-1.7941,-1.7947,-1.8029,-1.8004,-1.8034,-1.8085,-1.8112,-1.8122,-1.8131,-1.816,-1.8171,-1.8041,-1.8041,-1.8041,0,-1.79,-1.7933,-1.791,-1.7938,-1.7946,-1.7909,-1.7945,-1.7948,-1.7956,-1.7962,-1.794,-1.7978,-1.7977,-1.8023,-1.8043,-1.8049,-1.8058,-1.8035,-1.8122,-1.8131,-1.8139,-1.8166,-1.8178,-1.8044,-1.8044,-1.8044,-1.8043,0,-1.799,-1.8013,-1.8042,-1.805,-1.8061,-1.8093,-1.8075,-1.8089,-1.8072,-1.8063,-1.81,-1.8098,-1.8112,-1.8122,-1.8105,-1.8166,-1.8153,-1.8127,-1.8086,-1.8155,-1.8181,-1.8191,-1.805,-1.8048,-1.8047,-1.8046,0,0,-1.8106,-1.8101,-1.8112,-1.8116,-1.8116,-1.8133,-1.8164,-1.8178,-1.8191,-1.8197,-1.8222,-1.8249,-1.8225,-1.8232,-1.8215,-1.8239,-1.8304,-1.821,-1.821,-1.8228,-1.8371,-1.8391,-1.8404,-1.8288,-1.829,-1.8292,-1.8371,0,-1.8184,-1.8236,-1.8216,-1.8269,-1.8291,-1.8256,-1.8282,-1.8286,-1.8278,-1.8295,-1.8287,-1.8307,-1.8273,-1.8277,-1.8299,-1.8292,-1.8333,-1.8286,-1.8311,-1.8313,-1.8312,-1.8417,-1.8438,-1.8513,-1.838,-1.8382,-1.8383,0,-1.8283,-1.8293,-1.8349,-1.8345,-1.8353,-1.8377,-1.8389,-1.8406,-1.8408,-1.8401,-1.8409,-1.8388,-1.8417,-1.8377,-1.8417,-1.8386,-1.8395,-1.8393,-1.8395,-1.8397,-1.8352,-1.8422,-1.8536,-1.8547,-1.8399,-1.8398,-1.8397,0,-1.8362,-1.839,-1.8427,-1.8431,-1.8428,-1.8445,-1.8445,-1.8445,-1.8455,-1.8465,-1.8472,-1.8485,-1.8493,-1.8504,-1.8486,-1.8459,-1.853,-1.8488,-1.8525,-1.8526,-1.8542,-1.8541,-1.8659,-1.8547,-1.8547,-1.8547,-1.8547,0,-1.8452,-1.8487,-1.8463,-1.8486,-1.8524,-1.8501,-1.854,-1.8535,-1.8536,-1.8557,-1.8528,-1.8549,-1.8524,-1.8543,-1.853,-1.8565,-1.8569,-1.8564,-1.856,-1.8567,-1.8568,-1.8573,-1.8568,-1.855,-1.8549,-1.8549,-1.8548,0,-1.8548,-1.8533,-1.8571,-1.8564,-1.8563,-1.8592,-1.8587,-1.8608,-1.8598,-1.8625,-1.863,-1.8616,-1.8636,-1.862,-1.8639,-1.863,-1.8678,-1.8666,-1.8677,-1.8674,-1.8712,-1.8709,-1.8839,-1.8854,-1.8732,-1.8733,-1.8734,0,-1.8606,-1.8633,-1.8629,-1.8641,-1.8643,-1.8662,-1.8672,-1.8651,-1.8662,-1.8667,-1.8688,-1.8705,-1.8718,-1.8752,-1.8743,-1.8758,-1.8747,-1.8791,-1.8749,-1.8755,-1.8748,-1.8747,-1.8749,-1.88,-1.8801,-1.8802,-1.8803,0,-1.8712,-1.8703,-1.8718,-1.8732,-1.8744,-1.8753,-1.876,-1.8772,-1.8749,-1.8764,-1.8784,-1.8794,-1.8814,-1.8832,-1.8844,-1.8843,-1.882,-1.8817,-1.8826,-1.8834,-1.8839,-1.8837,-1.8701,-1.8814,-1.8813,-1.8812,-1.8812,-1.8811,-1.8791,-1.8813,-1.8814,-1.8832,-1.8835,-1.8842,-1.8861,-1.8854,-1.887,-1.8885,-1.8871,-1.8895,-1.8897,-1.8911,-1.8913,-1.8932,-1.8914,-1.8928,-1.8931,-1.8935,-1.8941,-1.8836,-1.8934,-1.8934,-1.8934,-1.8933,-1.8933,0,-1.8896,-1.8894,-1.8911,-1.8922,-1.8936,-1.8912,-1.8919,-1.8932,-1.8954,-1.8958,-1.8971,-1.8994,-1.9012,-1.9004,-1.9019,-1.9036,-1.9026,-1.9041,-1.9039,-1.904,-1.8956,-1.8946,-1.9049,-1.9049,-1.9049,-1.9049,-1.9049,-1.9049,-1.8952,-1.8987,-1.8979,-1.9016,-1.9014,-1.9038,-1.9043,-1.905,-1.9053,-1.908,-1.9094,-1.9089,-1.9088,-1.9103,-1.9118,-1.9115,-1.9122,-1.9141,-1.9135,-1.9057,-1.9046,-1.9035,-1.9026,-1.9143,-1.9143,-1.9217,-1.9218,-1.9219]},{"header":{"parameterUnit":"m.s-1","parameterCategory":1,"la1":30.2991,"la2":30.254,"lo1":-89.0895,"lo2":-89.0444,"dy":0.0017,"dx":0.0017,"nx":28,"ny":28,"refTime":"2023-10-09T03:00:00:Z","depth":0,"parameterNumber":3,"parameterNumberName":"V-component_of_WINDS"},"data":[0,0,0,0,0,0,0,0,0,0,0,0,0,0,0,0,0,0,0,0,0,0,0,0,0,0,0,0,0,0,0,0,0,0,0,0,0,0,0,0,0,0,0,0,0,0,0,0,0,0,0,0,0,0,0,0,0,0,2.8588,2.8589,0,2.8632,2.8632,2.8633,2.8619,2.8618,2.8617,2.8616,2.8656,2.8658,2.866,0,0,0,0,0,0,0,0,0,0,0,0,0,2.8488,2.8489,2.8588,2.8589,2.8589,2.8632,2.8632,2.8633,2.8619,2.8618,2.8617,2.8616,2.8656,2.8658,2.866,0,0,0,0,0,0,0,0,0,0,0,0,0,2.8531,2.849,2.8588,2.8588,2.8588,2.8632,2.8632,2.8633,2.8619,2.8618,2.8617,2.8615,2.8655,2.8658,2.8661,2.8706,0,0,2.867,2.8671,0,0,0,0,0,0,0,0,2.8529,2.8535,2.8587,2.8588,2.8588,2.8619,2.8612,2.8658,2.862,2.8607,2.8616,2.8615,2.8645,2.8648,2.8659,2.8708,2.871,2.867,2.8672,2.8673,2.8674,0,0,0,0,0,0,0,2.8526,2.8533,2.8605,2.8588,2.8589,2.8583,2.8588,2.862,2.8633,2.8608,2.8607,2.8613,2.8645,2.8657,2.866,2.871,2.867,2.8672,2.8674,2.8675,2.8797,2.8798,0,0,0,0,0,0,2.8523,2.853,2.8604,2.8607,2.8555,2.8586,2.8592,2.861,2.8633,2.8635,2.8614,2.8612,2.8652,2.8657,2.8662,2.8715,2.8673,2.8676,2.8677,2.8795,2.8797,2.8798,0,0,0,0,0,0,2.8521,2.853,2.8602,2.8568,2.8577,2.859,2.8611,2.8612,2.8624,2.8637,2.8639,2.8624,2.8651,2.8658,2.8695,2.8716,2.8677,2.8679,2.8793,2.8796,2.8798,2.8823,0,0,0,0,0,0,2.8518,2.8529,2.8548,2.8569,2.8579,2.8637,2.8612,2.8614,2.8629,2.8627,2.8647,2.8649,2.8651,2.8691,2.8698,2.8719,2.8682,2.8791,2.8794,2.8797,2.882,2.8825,2.883,0,0,0,0,0,2.8515,2.8552,2.8549,2.8558,2.8603,2.8638,2.8643,2.8646,2.8631,2.8649,2.8657,2.8648,2.8713,2.8695,2.8703,2.8725,2.879,2.8794,2.8797,2.8818,2.8824,2.883,0,0,0,0,0,0,2.8532,2.8555,2.8551,2.8598,2.8616,2.8635,2.8658,2.8653,2.8675,2.8672,2.8673,2.8677,2.8715,2.8724,2.8704,2.877,2.8749,2.8754,2.8762,2.8769,2.8774,2.877,2.8684,0,0,0,0,0,2.8542,2.857,2.8588,2.8627,2.8636,2.8646,2.8661,2.8661,2.868,2.8687,2.8698,2.8715,2.8739,2.8755,2.8777,2.8822,2.8824,2.8841,2.8846,2.885,2.8854,2.8876,2.8883,2.8809,2.8809,2.8809,0,0,2.8561,2.8577,2.8594,2.8631,2.8645,2.8672,2.8652,2.8682,2.8701,2.8691,2.8727,2.8736,2.8755,2.8795,2.8814,2.8804,2.8875,2.8854,2.8858,2.8859,2.888,2.8887,2.8893,2.8812,2.8811,2.8811,0,0,2.861,2.8626,2.8659,2.8674,2.8696,2.8702,2.871,2.873,2.8736,2.8773,2.8765,2.8787,2.8829,2.8842,2.8855,2.8908,2.8899,2.8915,2.8941,2.8962,2.8968,2.8973,2.899,2.8997,2.8919,2.8919,2.8919,0,2.863,2.8672,2.8676,2.8707,2.8722,2.8715,2.8748,2.8762,2.8789,2.8799,2.8788,2.884,2.8852,2.8895,2.8908,2.8918,2.8926,2.8912,2.8967,2.8972,2.8977,2.8993,2.9,2.8921,2.8921,2.8921,2.892,0,2.8696,2.8725,2.8749,2.8777,2.8795,2.8827,2.8834,2.8851,2.885,2.8856,2.8892,2.8907,2.8932,2.8943,2.8941,2.8985,2.8978,2.8967,2.8946,2.8986,2.9001,2.9007,2.8923,2.8923,2.8922,2.8922,0,0,2.8756,2.8786,2.8795,2.8807,2.8831,2.8852,2.8883,2.8908,2.8922,2.8942,2.8965,2.9001,2.8991,2.9005,2.9005,2.9024,2.9063,2.9011,2.9011,2.9018,2.9109,2.9115,2.9123,2.9058,2.906,2.9061,2.9107,0,2.8805,2.886,2.8864,2.8912,2.8938,2.8932,2.8958,2.8974,2.8981,2.9002,2.9009,2.9034,2.902,2.9028,2.9047,2.9054,2.9081,2.9051,2.9078,2.9079,2.9072,2.9131,2.9138,2.9181,2.9113,2.9114,2.9115,0,2.887,2.8892,2.8944,2.8963,2.8974,2.8997,2.902,2.9041,2.9059,2.9063,2.9078,2.9075,2.9104,2.9084,2.9122,2.9102,2.9113,2.9119,2.912,2.9121,2.9098,2.9132,2.9195,2.9201,2.9124,2.9124,2.9123,0,2.8907,2.8949,2.8985,2.8996,2.902,2.9036,2.9046,2.9063,2.9077,2.9097,2.9106,2.9129,2.9141,2.9157,2.916,2.9145,2.9198,2.9178,2.92,2.92,2.921,2.9209,2.9274,2.9221,2.922,2.922,2.922,0,2.896,2.8991,2.9002,2.9024,2.9057,2.9061,2.9094,2.9103,2.9118,2.914,2.9136,2.9156,2.9159,2.918,2.9182,2.9213,2.9219,2.9221,2.9221,2.922,2.922,2.9226,2.9223,2.9222,2.9222,2.9221,2.9221,0,2.9006,2.9015,2.9053,2.9072,2.9078,2.9102,2.9117,2.9137,2.9144,2.9171,2.9178,2.9188,2.9212,2.9217,2.9245,2.9246,2.9282,2.928,2.9276,2.9275,2.9296,2.9293,2.9366,2.9375,2.9317,2.9318,2.9319,0,2.9039,2.9063,2.9085,2.91,2.9111,2.9136,2.9151,2.9155,2.917,2.9192,2.9209,2.9233,2.9252,2.929,2.9298,2.9319,2.9317,2.9341,2.932,2.9318,2.9315,2.9312,2.9314,2.9344,2.9345,2.9345,2.9346,0,2.9096,2.9099,2.9122,2.9145,2.9164,2.9183,2.92,2.9212,2.9219,2.9236,2.9261,2.9276,2.9305,2.9328,2.9349,2.9358,2.9352,2.9353,2.9358,2.9357,2.9353,2.9354,2.9285,2.935,2.935,2.935,2.9349,2.9349,2.9135,2.9155,2.9174,2.9198,2.9212,2.9229,2.9248,2.9257,2.9279,2.9303,2.9304,2.9331,2.9346,2.9374,2.9384,2.9404,2.9396,2.9405,2.9407,2.9409,2.941,2.9352,2.9408,2.9408,2.9408,2.9408,2.9408,0,2.919,2.9201,2.9224,2.925,2.9269,2.9264,2.9283,2.9298,2.9322,2.9338,2.9357,2.9385,2.9407,2.9417,2.9439,2.9452,2.945,2.9458,2.9456,2.9457,2.9417,2.9409,2.9459,2.9459,2.9459,2.9459,2.9459,2.9459,2.9221,2.9254,2.9259,2.9298,2.9309,2.9336,2.9347,2.9362,2.9374,2.9406,2.9424,2.9432,2.9444,2.9467,2.9486,2.9488,2.9495,2.9504,2.9504,2.9466,2.946,2.9455,2.9448,2.9506,2.9506,2.9543,2.9544,2.9544]}]]